�������l�o���
Date,Time,MP-1(��Sv/h),MP-2(��Sv/h),MP-3(��Sv/h),MP-4(��Sv/h),MP-5(��Sv/h),MP-6(��Sv/h),MP-7(��Sv/h),MP-8(��Sv/h),����,����(m/s),���J
2017/08/02,00:00,0.952,1.488,0.990,1.784,1.227,0.514,0.940,0.873,�k�k��,3.9,�L
2017/08/02,00:10,0.953,1.490,0.991,1.783,1.227,0.514,0.940,0.871,�k�k��,4.2,��
2017/08/02,00:20,0.953,1.490,0.992,1.785,1.230,0.514,0.940,0.870,�k�k��,3.2,��
2017/08/02,00:30,0.951,1.491,0.991,1.781,1.228,0.515,0.942,0.874,�k�k��,3.5,��
2017/08/02,00:40,0.953,1.490,0.990,1.784,1.230,0.514,0.942,0.871,�k�k��,3.5,��
2017/08/02,00:50,0.953,1.489,0.992,1.781,1.226,0.516,0.941,0.871,�k,3.5,��
2017/08/02,01:00,0.951,1.489,0.989,1.785,1.227,0.515,0.943,0.872,�k,3.3,��
2017/08/02,01:10,0.954,1.487,0.990,1.783,1.227,0.515,0.943,0.871,�k,3.0,��
2017/08/02,01:20,0.952,1.488,0.990,1.784,1.228,0.514,0.941,0.872,�k,3.6,��
2017/08/02,01:30,0.953,1.487,0.991,1.784,1.228,0.515,0.943,0.872,�k,3.7,��
2017/08/02,01:40,0.953,1.489,0.991,1.783,1.227,0.515,0.943,0.872,�k,3.5,��
2017/08/02,01:50,0.953,1.488,0.991,1.785,1.229,0.516,0.943,0.871,�k,3.6,��
2017/08/02,02:00,0.953,1.489,0.993,1.784,1.228,0.515,0.943,0.871,�k�k��,3.6,��
2017/08/02,02:10,0.953,1.490,0.989,1.783,1.228,0.515,0.943,0.872,�k�k��,3.8,��
2017/08/02,02:20,0.952,1.490,0.991,1.784,1.229,0.515,0.942,0.871,�k�k��,3.9,��
2017/08/02,02:30,0.952,1.489,0.989,1.782,1.230,0.515,0.943,0.871,�k�k��,3.7,��
2017/08/02,02:40,0.953,1.489,0.990,1.782,1.230,0.514,0.944,0.870,�k,4.1,��
2017/08/02,02:50,0.952,1.489,0.989,1.782,1.229,0.516,0.944,0.873,�k,3.9,��
2017/08/02,03:00,0.952,1.489,0.990,1.780,1.226,0.516,0.942,0.873,�k,4.2,��
2017/08/02,03:10,0.952,1.487,0.992,1.784,1.229,0.515,0.945,0.870,�k,4.1,��
2017/08/02,03:20,0.955,1.488,0.990,1.782,1.227,0.514,0.945,0.873,�k�k��,3.7,��
2017/08/02,03:30,0.952,1.484,0.990,1.780,1.228,0.514,0.943,0.873,�k�k��,4.1,��
2017/08/02,03:40,0.954,1.491,0.989,1.783,1.231,0.517,0.942,0.871,�k,3.6,��
2017/08/02,03:50,0.952,1.488,0.991,1.783,1.229,0.515,0.943,0.872,�k,4.0,��
2017/08/02,04:00,0.953,1.489,0.991,1.784,1.228,0.515,0.942,0.872,�k�k��,3.8,��
2017/08/02,04:10,0.951,1.487,0.990,1.783,1.228,0.515,0.943,0.872,�k,3.3,��
2017/08/02,04:20,0.953,1.488,0.987,1.782,1.231,0.514,0.941,0.874,�k,2.6,��
2017/08/02,04:30,0.953,1.490,0.990,1.781,1.228,0.515,0.942,0.873,�k,2.6,��
2017/08/02,04:40,0.954,1.491,0.992,1.787,1.227,0.514,0.942,0.871,�k,2.8,��
2017/08/02,04:50,0.952,1.490,0.990,1.783,1.230,0.514,0.943,0.873,�k,2.6,��
2017/08/02,05:00,0.954,1.491,0.991,1.785,1.229,0.515,0.944,0.871,�k,2.3,�L
2017/08/02,05:10,0.953,1.489,0.990,1.785,1.228,0.515,0.942,0.873,�k,2.2,�L
2017/08/02,05:20,0.951,1.490,0.991,1.784,1.229,0.514,0.942,0.872,�k,1.7,��
2017/08/02,05:30,0.950,1.491,0.993,1.780,1.226,0.515,0.942,0.872,�k,1.9,��
2017/08/02,05:40,0.952,1.488,0.991,1.782,1.228,0.514,0.944,0.871,�k,2.0,��
2017/08/02,05:50,0.952,1.492,0.991,1.785,1.228,0.514,0.940,0.873,�k,2.2,��
2017/08/02,06:00,0.954,1.490,0.988,1.784,1.226,0.513,0.943,0.873,�k,1.9,��
2017/08/02,06:10,0.952,1.490,0.989,1.785,1.227,0.514,0.942,0.873,�k,2.0,��
2017/08/02,06:20,0.951,1.492,0.988,1.785,1.226,0.515,0.941,0.872,�k,2.5,��
2017/08/02,06:30,0.952,1.490,0.988,1.783,1.231,0.514,0.944,0.872,�k,2.5,��
2017/08/02,06:40,0.954,1.488,0.989,1.783,1.229,0.514,0.942,0.871,�k,2.3,��
2017/08/02,06:50,0.951,1.490,0.989,1.782,1.231,0.515,0.942,0.873,�k�k��,2.0,��
2017/08/02,07:00,0.952,1.491,0.991,1.787,1.230,0.516,0.943,0.871,�k�k��,2.3,��
2017/08/02,07:10,0.954,1.492,0.990,1.786,1.229,0.513,0.942,0.873,�k��,2.5,��
2017/08/02,07:20,0.953,1.494,0.989,1.788,1.230,0.514,0.942,0.873,�k�k��,2.3,��
2017/08/02,07:30,0.952,1.488,0.987,1.784,1.230,0.516,0.943,0.872,�k��,1.7,��
2017/08/02,07:40,0.951,1.491,0.988,1.785,1.230,0.513,0.944,0.872,�k��,2.0,��
2017/08/02,07:50,0.953,1.491,0.990,1.783,1.229,0.514,0.943,0.871,�k��,2.3,�L
2017/08/02,08:00,0.954,1.491,0.991,1.785,1.228,0.515,0.942,0.871,���k��,2.0,�L
2017/08/02,08:10,0.953,1.487,0.988,1.789,1.230,0.514,0.943,0.872,�k��,1.5,�L
2017/08/02,08:20,0.952,1.488,0.991,1.785,1.231,0.514,0.942,0.872,�k�k��,1.5,�L
2017/08/02,08:30,0.951,1.488,0.989,1.787,1.228,0.513,0.942,0.872,�k,1.4,�L
2017/08/02,08:40,0.952,1.490,0.985,1.784,1.230,0.513,0.942,0.870,�k�k��,1.4,�L
2017/08/02,08:50,0.952,1.486,0.983,1.789,1.229,0.514,0.943,0.871,�k�k��,1.5,��
2017/08/02,09:00,0.953,1.486,0.983,1.787,1.231,0.512,0.941,0.872,�k��,4.3,�L
2017/08/02,09:10,0.947,1.486,0.981,1.784,1.226,0.512,0.940,0.872,�k�k��,4.5,�L
2017/08/02,09:20,0.948,1.484,0.983,1.785,1.227,0.512,0.941,0.869,�k�k��,5.7,�L
2017/08/02,09:30,0.948,1.481,0.986,1.784,1.224,0.514,0.941,0.867,�k�k��,5.9,�L
2017/08/02,09:40,0.948,1.481,0.986,1.788,1.225,0.513,0.939,0.868,�k�k��,4.6,�L
2017/08/02,09:50,0.949,1.482,0.987,1.786,1.227,0.514,0.939,0.868,�k�k��,5.0,�L
2017/08/02,10:00,0.951,1.482,0.987,1.786,1.226,0.515,0.941,0.871,�k,4.6,�L
2017/08/02,10:10,0.950,1.484,0.990,1.785,1.228,0.514,0.940,0.870,�k,3.6,��
2017/08/02,10:20,0.951,1.481,0.989,1.784,1.228,0.514,0.942,0.873,�k,3.4,��
2017/08/02,10:30,0.950,1.486,0.988,1.788,1.228,0.514,0.941,0.871,�k,3.4,��
2017/08/02,10:40,0.950,1.485,0.986,1.787,1.230,0.514,0.940,0.868,�k�k��,4.5,��
2017/08/02,10:50,0.949,1.483,0.985,1.786,1.229,0.515,0.942,0.872,�k�k��,5.4,��
2017/08/02,11:00,0.950,1.484,0.986,1.784,1.228,0.513,0.941,0.871,�k�k��,5.3,��
2017/08/02,11:10,0.950,1.487,0.988,1.789,1.229,0.514,0.943,0.871,�k�k��,5.5,��
2017/08/02,11:20,0.951,1.486,0.987,1.788,1.230,0.512,0.942,0.871,�k�k��,6.2,��
2017/08/02,11:30,0.953,1.490,0.989,1.787,1.230,0.512,0.943,0.869,�k�k��,5.7,��
2017/08/02,11:40,0.952,1.488,0.987,1.787,1.229,0.513,0.942,0.871,�k�k��,6.2,��
2017/08/02,11:50,0.953,1.489,0.987,1.787,1.228,0.511,0.941,0.871,�k�k��,6.1,��
2017/08/02,12:00,0.952,1.486,0.985,1.789,1.227,0.513,0.944,0.868,�k�k��,6.2,��
2017/08/02,12:10,0.953,1.487,0.988,1.788,1.230,0.513,0.945,0.868,�k�k��,7.2,�L
2017/08/02,12:20,0.954,1.491,0.987,1.788,1.230,0.514,0.942,0.870,�k�k��,5.4,��
2017/08/02,12:30,0.954,1.489,0.988,1.788,1.231,0.514,0.943,0.871,�k�k��,6.5,�L
2017/08/02,12:40,0.954,1.494,0.988,1.791,1.230,0.513,0.942,0.870,�k�k��,6.4,�L
2017/08/02,12:50,0.957,1.492,0.988,1.790,1.232,0.513,0.943,0.871,�k,5.9,��
2017/08/02,13:00,0.957,1.493,0.990,1.793,1.233,0.515,0.942,0.870,�k�k��,6.3,��
2017/08/02,13:10,0.955,1.494,0.988,1.790,1.234,0.514,0.943,0.871,�k�k��,6.3,��
2017/08/02,13:20,0.956,1.496,0.990,1.786,1.232,0.515,0.946,0.870,�k�k��,6.2,��
2017/08/02,13:30,0.956,1.497,0.991,1.791,1.232,0.515,0.944,0.871,�k�k��,6.0,��
2017/08/02,13:40,0.957,1.495,0.993,1.791,1.235,0.514,0.945,0.870,�k�k��,5.6,��
2017/08/02,13:50,0.959,1.497,0.993,1.792,1.236,0.514,0.946,0.873,�k�k��,6.1,��
2017/08/02,14:00,0.960,1.495,0.994,1.790,1.235,0.514,0.943,0.872,�k�k��,5.7,��
2017/08/02,14:10,0.958,1.496,0.994,1.793,1.237,0.516,0.945,0.872,�k�k��,6.1,��
2017/08/02,14:20,0.958,1.497,0.993,1.790,1.237,0.515,0.946,0.871,�k�k��,6.1,��
2017/08/02,14:30,0.960,1.499,0.997,1.792,1.239,0.516,0.946,0.872,�k�k��,6.0,��
2017/08/02,14:40,0.959,1.500,0.994,1.790,1.239,0.516,0.946,0.872,�k�k��,5.9,�L
2017/08/02,14:50,0.960,1.500,0.994,1.789,1.238,0.515,0.948,0.874,�k�k��,6.1,��
2017/08/02,15:00,0.961,1.499,0.996,1.789,1.237,0.515,0.946,0.871,�k�k��,5.5,��
2017/08/02,15:10,0.958,1.499,0.993,1.788,1.239,0.514,0.946,0.870,�k�k��,5.0,��
2017/08/02,15:20,0.960,1.501,0.994,1.791,1.238,0.514,0.944,0.870,�k,5.9,��
2017/08/02,15:30,0.961,1.497,0.995,1.792,1.240,0.516,0.945,0.871,�k,5.0,��
2017/08/02,15:40,0.960,1.500,0.996,1.792,1.239,0.516,0.947,0.871,�k�k��,4.4,��
2017/08/02,15:50,0.961,1.500,0.994,1.793,1.239,0.516,0.944,0.872,�k,5.9,��
2017/08/02,16:00,0.961,1.500,0.995,1.793,1.238,0.516,0.946,0.872,�k�k��,5.5,��
2017/08/02,16:10,0.961,1.496,0.997,1.796,1.239,0.516,0.946,0.871,�k�k��,4.8,��
2017/08/02,16:20,0.961,1.501,0.996,1.794,1.242,0.516,0.946,0.872,�k�k��,4.1,��
2017/08/02,16:30,0.963,1.505,0.994,1.794,1.240,0.515,0.946,0.872,�k�k��,4.5,��
2017/08/02,16:40,0.961,1.503,0.995,1.798,1.240,0.515,0.945,0.874,�k�k��,4.4,��
2017/08/02,16:50,0.959,1.504,0.994,1.797,1.241,0.516,0.946,0.873,�k�k��,3.9,��
2017/08/02,17:00,0.961,1.503,0.997,1.795,1.241,0.516,0.946,0.872,�k,4.3,��
2017/08/02,17:10,0.961,1.503,0.996,1.795,1.239,0.514,0.946,0.875,�k,3.7,��
2017/08/02,17:20,0.960,1.505,0.996,1.796,1.237,0.516,0.946,0.872,�k�k��,3.3,��
2017/08/02,17:30,0.960,1.507,0.994,1.797,1.241,0.515,0.945,0.872,�k,3.2,��
2017/08/02,17:40,0.960,1.505,0.996,1.796,1.241,0.516,0.946,0.874,�k�k��,2.3,��
2017/08/02,17:50,0.960,1.508,0.997,1.800,1.241,0.516,0.945,0.875,�k�k��,2.5,��
2017/08/02,18:00,0.960,1.510,0.999,1.797,1.242,0.517,0.944,0.875,�k,2.5,��
2017/08/02,18:10,0.961,1.507,0.998,1.796,1.243,0.517,0.948,0.876,�k,2.6,��
2017/08/02,18:20,0.961,1.508,0.998,1.797,1.245,0.515,0.947,0.875,�k�k��,2.5,��
2017/08/02,18:30,0.961,1.507,0.998,1.797,1.244,0.517,0.947,0.875,�k,2.3,�L
2017/08/02,18:40,0.959,1.508,0.998,1.799,1.243,0.517,0.946,0.877,�k,2.6,��
2017/08/02,18:50,0.960,1.507,0.999,1.797,1.243,0.516,0.945,0.875,�k,2.2,��
2017/08/02,19:00,0.958,1.509,1.000,1.798,1.245,0.517,0.946,0.876,�k,2.2,��
2017/08/02,19:10,0.961,1.508,0.998,1.796,1.244,0.516,0.946,0.876,�k,1.7,��
2017/08/02,19:20,0.960,1.507,1.001,1.795,1.243,0.516,0.947,0.876,�k,2.9,��
2017/08/02,19:30,0.964,1.505,1.002,1.801,1.241,0.517,0.949,0.875,�k,2.3,��
2017/08/02,19:40,0.962,1.507,0.999,1.797,1.242,0.517,0.948,0.876,�k,2.3,��
2017/08/02,19:50,0.962,1.505,1.000,1.801,1.241,0.517,0.947,0.875,�k�k��,2.6,��
2017/08/02,20:00,0.960,1.509,1.001,1.800,1.242,0.519,0.947,0.877,�k,2.5,��
2017/08/02,20:10,0.963,1.505,0.999,1.797,1.243,0.515,0.946,0.876,�k,3.0,��
2017/08/02,20:20,0.964,1.510,0.999,1.798,1.243,0.518,0.948,0.876,�k,3.3,��
2017/08/02,20:30,0.963,1.507,1.000,1.801,1.245,0.517,0.946,0.876,�k,4.3,��
2017/08/02,20:40,0.962,1.508,0.999,1.799,1.243,0.516,0.946,0.877,�k,4.2,��
2017/08/02,20:50,0.964,1.507,0.999,1.799,1.245,0.518,0.946,0.876,�k�k��,3.8,��
2017/08/02,21:00,0.962,1.507,1.000,1.796,1.240,0.516,0.946,0.875,�k�k��,3.4,��
2017/08/02,21:10,0.962,1.510,1.001,1.800,1.244,0.517,0.947,0.877,�k�k��,3.0,��
2017/08/02,21:20,0.964,1.509,0.999,1.800,1.243,0.517,0.947,0.874,�k�k��,3.6,��
2017/08/02,21:30,0.962,1.507,1.000,1.798,1.244,0.517,0.946,0.876,�k�k��,3.9,�L
2017/08/02,21:40,0.962,1.508,0.999,1.798,1.245,0.518,0.947,0.873,�k�k��,4.0,�L
2017/08/02,21:50,0.962,1.507,1.000,1.798,1.243,0.518,0.947,0.876,�k�k��,3.2,�L
2017/08/02,22:00,0.963,1.507,0.999,1.801,1.246,0.517,0.947,0.876,�k�k��,3.0,��
2017/08/02,22:10,0.963,1.509,1.000,1.799,1.244,0.515,0.945,0.876,�k�k��,3.2,�L
2017/08/02,22:20,0.962,1.509,1.000,1.799,1.247,0.516,0.948,0.876,�k�k��,3.7,��
2017/08/02,22:30,0.965,1.510,1.001,1.800,1.243,0.517,0.946,0.875,�k�k��,3.6,�L
2017/08/02,22:40,0.963,1.509,1.000,1.801,1.245,0.518,0.947,0.876,�k�k��,4.5,��
2017/08/02,22:50,0.963,1.511,1.000,1.802,1.243,0.517,0.945,0.877,�k��,4.9,��
2017/08/02,23:00,0.962,1.509,0.999,1.801,1.244,0.516,0.947,0.877,�k��,4.5,��
2017/08/02,23:10,0.961,1.509,1.001,1.800,1.241,0.517,0.948,0.876,�k��,4.4,��
2017/08/02,23:20,0.963,1.503,1.001,1.799,1.243,0.519,0.947,0.875,�k��,4.6,��
2017/08/02,23:30,0.962,1.509,0.999,1.800,1.246,0.519,0.948,0.877,�k��,4.1,��
2017/08/02,23:40,0.961,1.507,0.998,1.802,1.245,0.516,0.946,0.875,�k��,4.1,��
2017/08/02,23:50,0.962,1.507,1.001,1.799,1.242,0.518,0.947,0.874,�k��,4.6,��
